Location: Paderno d�Adda
(45.6667°N, 9.4333°E)
Time: 13:27:42
(UTC+00:00)

Cosmos 494 Rocket - Visible Passes

Search period start: 18 January 2021 00:00
Search period end: 28 January 2021 00:00
Orbit: 743 x 770 km, 74.1° (Epoch: 17 January)

Date Brightness Start Highest point End Pass type
(mag) Time Alt. Az. Time Alt. Az. Time Alt. Az.
22 Jan 6.5 19:17:18 10° N 19:17:22 10° N 19:17:22 10° N visible
23 Jan 6.1 18:37:09 10° N 18:37:56 13° N 18:37:56 13° N visible
24 Jan 5.9 17:57:24 10° NNE 17:58:34 13° NNE 17:58:34 13° NNE visible
24 Jan 6.4 19:37:48 10° NNW 19:38:37 15° NNW 19:38:37 15° NNW visible
25 Jan 5.6 18:57:21 10° NNW 18:59:20 23° N 18:59:20 23° N visible
26 Jan 5.1 18:17:06 10° N 18:20:11 26° NNE 18:20:11 26° NNE visible
26 Jan 6.3 19:58:47 10° NW 20:00:15 18° NW 20:00:15 18° NW visible
27 Jan 5.3 17:37:07 10° N 17:40:47 19° NE 17:41:10 19° ENE visible
27 Jan 5.0 19:18:00 10° NNW 19:21:15 39° NW 19:21:15 39° NW visible
